EW6341 Weather Reports


time (UTC)temp
C
wind
direction
speed
KPH
gust
KPH
rain 1hr
cm
rain 24hr
cm
rain mn
cm
humidity
%
barometer
mb
20260504130510 26 101 0.0 0.0 0.00 0.00 0.00 1 1013.4
20260504110709 -17 0.0 0.0 0.00 0.00 0.00 1012.3
20260504110205 -17 0.0 0.0 0.00 0.00 0.00 1012.2
20260504100313 26 101 0.0 0.0 0.00 0.00 0.00 1 1012.2
20260504081404 27 101 0.0 0.0 0.00 0.00 0.00 1 1012.1
20260504080902 27 100 0.0 0.0 0.00 0.00 0.00 1 1012.0
20260504080401 27 100 0.0 0.0 0.00 0.00 0.00 1 1012.1
20260504080136 28 101 0.0 0.0 0.00 0.00 0.00 1 1012.1
20260504070341 28 101 0.0 0.0 0.00 0.00 0.00 1 1012.8
20260504070329 28 100 0.0 0.0 0.00 0.00 0.00 1 1012.8
20260504050752 28 109 0.0 0.0 0.00 0.00 0.00 1 1013.9
20260504050519 28 109 0.0 0.0 0.00 0.00 0.00 1 1013.9
20260504045742 28 109 0.0 0.0 0.00 0.00 0.00 1 1013.9
20260504045235 28 109 0.0 0.0 0.00 0.00 0.00 1 1013.9
20260504044729 28 109 0.0 0.0 0.00 0.00 0.00 1 1013.9
20260504044227 28 109 0.0 0.0 0.00 0.00 0.00 1 1014.1
20260504043724 28 109 0.0 0.0 0.00 0.00 0.00 1 1014.0
20260504043223 28 109 0.0 0.0 0.00 0.00 0.00 1 1014.0
20260504042721 28 109 0.0 0.0 0.00 0.00 0.00 1 1014.0
20260504042220 28 110 0.0 0.0 0.00 0.00 0.00 1 1014.1
20260504041953 28 109 0.0 0.0 0.00 0.00 0.00 1 1014.1
20260504041217 28 109 0.0 0.0 0.00 0.00 0.00 1 1014.0
20260504040732 28 101 0.0 0.0 0.00 0.00 0.00 1 1013.8
20260504040718 28 109 0.0 0.0 0.00 0.00 0.00 1 1013.9
20260504035949 28 93 0.0 0.0 0.00 0.00 0.00 1 1013.8
20260504035217 28 107 0.0 0.0 0.00 0.00 0.00 1 1013.9
20260504034717 28 109 0.0 0.0 0.00 0.00 0.00 1 1013.8
20260504034217 28 108 0.0 0.0 0.00 0.00 0.00 1 1013.9
20260504033719 28 113 0.0 0.0 0.00 0.00 0.00 1 1013.8
20260504033217 28 98 0.0 0.0 0.00 0.00 0.00 1 1013.7
20260504032718 28 91 0.0 0.0 0.00 0.00 0.00 1 1013.7
20260504032449 28 94 0.0 0.0 0.00 0.00 0.00 1 1013.7
20260504031717 28 98 0.0 0.0 0.00 0.00 0.00 1 1013.6
20260504031217 28 98 0.0 0.0 0.00 0.00 0.00 1 1013.6
20260504030948 28 96 0.0 0.0 0.00 0.00 0.00 1 1013.5
20260504030217 28 104 0.0 0.0 0.00 0.00 0.00 1 1013.6
20260504025947 28 96 0.0 0.0 0.00 0.00 0.00 1 1013.6
20260504025839 28 85 0.0 0.0 0.00 0.00 0.00 1 1013.5
20260504024717 28 85 0.0 0.0 0.00 0.00 0.00 1 1013.4
20260504024217 28 93 0.0 0.0 0.00 0.00 0.00 1 1013.4
20260504023717 28 93 0.0 0.0 0.00 0.00 0.00 1 1013.3
20260504023219 28 93 0.0 0.0 0.00 0.00 0.00 1 1013.3
20260504022717 28 93 0.0 0.0 0.00 0.00 0.00 1 1013.2
20260504022447 28 93 0.0 0.0 0.00 0.00 0.00 1 1013.2
20260504021710 28 93 0.0 0.0 0.00 0.00 0.00 1 1013.2
20260504021204 28 93 0.0 0.0 0.00 0.00 0.00 1 1013.2
20260504021056 28 93 0.0 0.0 0.00 0.00 0.00 1 1013.1
20260504020946 28 93 0.0 0.0 0.00 0.00 0.00 1 1013.1
20260504015701 28 93 0.0 0.0 0.00 0.00 0.00 1 1013.0
20260504015437 28 92 0.0 0.0 0.00 0.00 0.00 1 1013.0
20260504014659 28 93 0.0 0.0 0.00 0.00 0.00 1 1013.0
20260504014200 28 92 0.0 0.0 0.00 0.00 0.00 1 1013.1
20260504013657 28 92 0.0 0.0 0.00 0.00 0.00 1 1013.1
20260504013155 28 92 0.0 0.0 0.00 0.00 0.00 1 1013.0
20260504012654 28 92 0.0 0.0 0.00 0.00 0.00 1 1013.1
20260504012153 28 92 0.0 0.0 0.00 0.00 0.00 1 1013.0
20260504011653 29 92 0.0 0.0 0.00 0.00 0.00 1 1013.0
20260504011151 29 92 0.0 0.0 0.00 0.00 0.00 1 1013.0
20260504010652 29 92 0.0 0.0 0.00 0.00 0.00 1 1012.9
20260504010151 29 92 0.0 0.0 0.00 0.00 0.00 1 1012.9
20260504005651 29 82 0.0 0.0 0.00 0.00 0.00 1 1012.8
20260504005147 29 82 0.0 0.0 0.00 0.00 0.00 1 1012.7
20260504004648 29 86 0.0 0.0 0.00 0.00 0.00 1 1012.6
20260504004413 29 92 0.0 0.0 0.00 0.00 0.00 1 1012.5
20260504003635 29 56 0.0 0.0 0.00 0.00 0.00 1 1012.7
20260504003129 29 70 0.0 0.0 0.00 0.00 0.00 1 1012.7
20260504002623 29 82 0.0 0.0 0.00 0.00 0.00 1 1012.7
20260504002119 29 83 0.0 0.0 0.00 0.00 0.00 1 1012.7
20260504001611 29 53 0.0 0.0 0.00 0.00 0.00 1 1012.6
20260504001106 29 86 0.0 0.0 0.00 0.00 0.00 1 1012.6
20260504000600 29 89 0.0 0.0 0.00 0.00 0.00 1 1012.7
20260504000053 29 91 0.0 0.0 0.00 0.00 0.00 1 1012.5
20260503235549 29 67 0.0 0.0 0.00 0.00 0.00 1 1012.3
20260503235314 29 79 0.0 0.0 0.00 0.00 0.00 1 1012.3
20260503234536 29 79 0.0 0.0 0.00 0.00 0.00 1 1012.2
20260503234030 29 52 0.0 0.0 0.00 0.00 0.00 1 1012.1
20260503233519 29 77 0.0 0.0 0.00 0.00 0.00 1 1011.9
20260503233014 29 72 0.0 0.0 0.00 0.00 0.00 1 1011.7
20260503232740 29 67 0.0 0.0 0.00 0.00 0.00 1 1011.7
20260503232233 30 89 0.0 0.0 0.00 0.00 0.00 1 1011.6
20260503231455 30 89 0.0 0.0 0.00 0.00 0.00 1 1011.3
20260503231222 30 96 0.0 0.0 0.00 0.00 0.00 1 1011.5
20260503230444 30 58 0.0 0.0 0.00 0.00 0.00 1 1011.4
20260503225938 30 72 0.0 0.0 0.00 0.00 0.00 1 1011.0
20260503225431 30 59 0.0 0.0 0.00 0.00 0.00 1 1010.8
20260503225157 30 86 0.0 0.0 0.00 0.00 0.00 1 1010.8
20260503224420 30 99 0.0 0.0 0.00 0.00 0.00 1 1010.8
20260503223913 30 74 0.0 0.0 0.00 0.00 0.00 1 1010.9
20260503223407 30 98 0.0 0.0 0.00 0.00 0.00 1 1010.9
20260503222904 30 79 0.0 0.0 0.00 0.00 0.00 1 1010.8
20260503222355 30 97 0.0 0.0 0.00 0.00 0.00 1 1010.9
20260503221850 30 84 0.0 0.0 0.00 0.00 0.00 1 1010.9
20260503221344 30 83 0.0 0.0 0.00 0.00 0.00 1 1010.7
20260503220840 30 86 0.0 0.0 0.00 0.00 0.00 1 1010.7
20260503220332 30 108 0.0 0.0 0.00 0.00 0.00 1 1010.7
20260503220057 30 65 0.0 0.0 0.00 0.00 0.00 1 1010.8
20260503215552 30 44 0.0 0.0 0.00 0.00 0.00 1 1010.8
20260503215048 30 54 0.0 0.0 0.00 0.00 0.00 1 1010.7
20260503214307 30 89 0.0 0.0 0.00 0.00 0.00 1 1010.8
20260503213801 30 46 0.0 0.0 0.00 0.00 0.00 1 1010.8
20260503213256 30 90 0.0 0.0 0.00 0.00 0.00 1 1010.9
20260503212750 31 71 0.0 0.0 0.00 0.00 0.00 1 1011.0
20260503212245 31 80 0.0 0.0 0.00 0.00 0.00 1 1011.0
20260503211739 31 68 0.0 0.0 0.00 0.00 0.00 1 1011.0
20260503211230 31 56 0.0 0.0 0.00 0.00 0.00 1 1011.1
20260503210729 31 59 0.0 0.0 0.00 0.00 0.00 1 1011.0
20260503210230 31 75 0.0 0.0 0.00 0.00 0.00 1 1011.1
20260503205729 31 62 0.0 0.0 0.00 0.00 0.00 1 1011.2
20260503205230 31 82 0.0 0.0 0.00 0.00 0.00 1 1011.2
20260503204729 31 95 0.0 0.0 0.00 0.00 0.00 1 1011.1
20260503204229 31 67 0.0 0.0 0.00 0.00 0.00 1 1011.2
20260503204000 31 55 0.0 0.0 0.00 0.00 0.00 1 1011.2
20260503203229 31 77 0.0 0.0 0.00 0.00 0.00 1 1011.3
20260503202728 31 113 0.0 0.0 0.00 0.00 0.00 1 1011.2
20260503202500 31 41 0.0 0.0 0.00 0.00 0.00 1 1011.2
20260503201727 31 91 0.0 0.0 0.00 0.00 0.00 1 1011.3
20260503201228 31 44 0.0 0.0 0.00 0.00 0.00 6 1011.3
20260503200725 31 62 0.0 0.0 0.00 0.00 0.00 7 1011.4
20260503200225 32 65 0.0 0.0 0.00 0.00 0.00 6 1011.4
20260503195726 32 64 0.0 0.0 0.00 0.00 0.00 14 1011.5
20260503195226 32 72 0.0 0.0 0.00 0.00 0.00 12 1011.7
20260503194719 32 39 0.0 0.0 0.00 0.00 0.00 11 1011.7
20260503194215 32 61 0.0 0.0 0.00 0.00 0.00 16 1011.8
20260503193707 32 97 0.0 0.0 0.00 0.00 0.00 17 1011.8
20260503193200 32 60 0.0 0.0 0.00 0.00 0.00 27 1011.9
20260503192656 32 87 0.0 0.0 0.00 0.00 0.00 27 1012.0
20260503192154 33 37 0.0 0.0 0.00 0.00 0.00 29 1012.0
20260503191654 33 19 0.0 0.0 0.00 0.00 0.00 35 1012.1
20260503191155 33 82 0.0 0.0 0.00 0.00 0.00 35 1012.2
20260503190656 33 98 0.0 0.0 0.00 0.00 0.00 36 1012.4
20260503190444 32 35 0.0 0.0 0.00 0.00 0.00 35 1012.5
20260503190154 33 41 0.0 0.0 0.00 0.00 0.00 34 1012.5
20260503185156 32 34 0.0 0.0 0.00 0.00 0.00 40 1012.6
20260503184655 32 23 0.0 0.0 0.00 0.00 0.00 37 1012.7
20260503184156 32 71 0.0 0.0 0.00 0.00 0.00 42 1012.7
20260503183710 32 22 0.0 0.0 0.00 0.00 0.00 46 1012.8
20260503183656 32 57 0.0 0.0 0.00 0.00 0.00 45 1012.8
20260503182654 32 53 0.0 0.0 0.00 0.00 0.00 41 1012.9
20260503182427 32 51 0.0 0.0 0.00 0.00 0.00 48 1013.0
20260503181652 32 88 0.0 0.0 0.00 0.00 0.00 41 1013.0
20260503181153 32 51 0.0 0.0 0.00 0.00 0.00 35 1013.1
20260503180653 32 82 0.0 0.0 0.00 0.00 0.00 34 1013.1
20260503180154 32 40 0.0 0.0 0.00 0.00 0.00 31 1013.2
20260503175654 32 65 0.0 0.0 0.00 0.00 0.00 43 1013.2
20260503175426 33 47 0.0 0.0 0.00 0.00 0.00 46 1013.3
20260503174648 33 77 0.0 0.0 0.00 0.00 0.00 39 1013.5
20260503174151 33 97 0.0 0.0 0.00 0.00 0.00 44 1013.5
20260503173649 33 68 0.0 0.0 0.00 0.00 0.00 40 1013.5
20260503173150 33 50 0.0 0.0 0.00 0.00 0.00 37 1013.4
20260503172920 32 20 0.0 0.0 0.00 0.00 0.00 38 1013.4
20260503172149 32 85 0.0 0.0 0.00 0.00 0.00 39 1013.6
20260503171920 32 64 0.0 0.0 0.00 0.00 0.00 32 1013.6
20260503171150 32 51 0.0 0.0 0.00 0.00 0.00 35 1013.6
20260503170648 32 57 0.0 0.0 0.00 0.00 0.00 31 1013.6
20260503170147 32 71 0.0 0.0 0.00 0.00 0.00 38 1013.7
20260503160139 32 0 0.0 0.0 0.00 0.00 0.00 1 1013.8
20260503150806 30 0 0.0 0.0 0.00 0.00 0.00 1 1013.8